Location: Freistadt
(48.5112°N, 14.5013°E)
Time: 09:57:53
(UTC+01:00)

Meteor 1-20 - Visible Passes

Search period start: 08 December 2023 00:00
Search period end: 18 December 2023 00:00
Orbit: 841 x 866 km, 81.2° (Epoch: 07 December)

Date Brightness Start Highest point End Pass type
(mag) Time Alt. Az. Time Alt. Az. Time Alt. Az.
08 Dec 6.7 03:40:48 10° SE 03:45:12 25° E 03:49:37 10° NE visible
08 Dec 4.7 05:22:22 10° SSW 05:27:49 54° WNW 05:33:18 10° N visible
09 Dec 6.8 03:32:46 21° ESE 03:34:04 23° E 03:38:22 10° NE visible
09 Dec 4.6 05:15:07 43° SW 05:16:38 57° WNW 05:22:09 10° N visible
09 Dec 6.4 07:00:03 10° WNW 07:00:58 10° NW 07:01:54 10° NW visible
10 Dec 6.9 03:24:14 20° ENE 03:24:14 20° ENE 03:27:07 10° NE visible
10 Dec 4.9 05:06:25 52° NNW 05:06:25 52° NNW 05:11:01 10° N visible
10 Dec 6.4 06:48:36 10° WNW 06:49:44 11° NW 06:51:16 10° NW visible
11 Dec 7.3 03:14:32 15° NE 03:14:32 15° NE 03:15:51 10° NE visible
11 Dec 5.6 04:56:41 34° N 04:56:41 34° N 04:59:51 10° N visible
11 Dec 6.4 06:38:50 12° NW 06:38:50 12° NW 06:40:27 10° NNW visible
12 Dec 7.5 03:04:25 10° NE 03:04:25 10° NE 03:04:34 10° NE visible
12 Dec 6.2 04:46:33 24° N 04:46:33 24° N 04:48:43 10° N visible
12 Dec 6.5 06:28:40 11° NW 06:28:40 11° NW 06:29:34 10° NNW visible
12 Dec 7.8 16:59:16 10° WNW 17:00:25 11° WNW 17:01:35 10° W visible
13 Dec 6.6 04:36:12 18° N 04:36:12 18° N 04:37:33 10° N visible
13 Dec 6.6 06:18:18 11° NNW 06:18:18 11° NNW 06:18:37 10° NNW visible
13 Dec 7.6 16:47:34 10° WNW 16:49:19 11° W 16:51:05 10° W visible
14 Dec 6.9 04:25:41 14° N 04:25:41 14° N 04:26:24 10° N visible
15 Dec 7.2 04:15:05 11° N 04:15:05 11° N 04:15:14 10° N visible
